Weather History for Chicopee, MA

Change the Weather History Date:

Sunday, July 21, 2013

  Actual Average Record
Temperature  
Mean Temperature 75 °F -  
Max Temperature 87 °F 79 °F 97 °F (2011)
Min Temperature 63 °F 59 °F 50 °F (2012)
Cooling Degree Days 10    
Growing Degree Days 25 (Base 50)    
Moisture  
Dew Point 63 °F    
Average Humidity 65    
Maximum Humidity 100    
Minimum Humidity 40    
Precipitation  
Precipitation 0.00 in - - ()
Sea Level Pressure  
Sea Level Pressure 29.94 in    
Wind  
Wind Speed 3 mph (NE)    
Max Wind Speed 7 mph    
Max Gust Speed -    
Visibility 10 miles    
Events      
Averages and records for this station are not official NWS values.
T = Trace of Precipitation, MM = Missing Value Source: NWS Daily Summary

Daily Weather History Graph

Daily Weather History Graph

Search for Another Location

Airport:

Trip Planner

Search our weather history database for the weather conditions in past years. The results will help you decide how hot, cold, wet, or windy it might be!

Date:

Astronomy

Jul. 21, 2013 Rise Set
Actual Time 5:32 AM EDT 8:19 PM EDT
Civil Twilight 4:59 AM EDT 8:52 PM EDT
Nautical Twilight 4:18 AM EDT 9:33 PM EDT
Astronomical Twilight 3:30 AM EDT 10:21 PM EDT
Moon 7:14 PM EDT (7/21) 4:15 AM EDT (7/21)
Length of Visible Light 15h 52m
Length of Day
14h 47m
Waxing Gibbous, 98% of the Moon is Illuminated
Jul 21
Waxing Gibbous
Jul 22
Full
Jul 29
Last Quarter
Aug 6
New
Aug 14
First Quarter

Hourly Weather History & Observations

Time (EDT) Temp. Heat Index Dew Point Humidity Pressure Visibility Wind Dir Wind Speed Gust Speed Precip Events Conditions
12:58 AM 72.3 °F - 58.6 °F 62% 29.88 in 9.0 mi West 5.8 mph - N/A   Scattered Clouds
1:58 AM 70.5 °F - 60.6 °F 71% 29.88 in 10.0 mi NNE 2.3 mph - N/A   Overcast
2:58 AM 67.8 °F - 64.4 °F 89% 29.88 in 10.0 mi Calm Calm - N/A   Overcast
3:58 AM 65.3 °F - 64.0 °F 96% 29.88 in 10.0 mi Calm Calm - N/A   Overcast
4:58 AM 65.1 °F - 63.0 °F 93% 29.90 in 10.0 mi NE 2.3 mph - N/A   Scattered Clouds
5:58 AM 63.5 °F - 63.0 °F 98% 29.91 in 10.0 mi North 1.2 mph - N/A   Scattered Clouds
6:31 AM 64.4 °F - 64.4 °F 100% 29.90 in 10.0 mi North 1.2 mph - N/A   Light Drizzle
6:42 AM 66.2 °F - 66.2 °F 100% 29.90 in 10.0 mi North 2.3 mph - N/A   Clear
6:58 AM 67.5 °F - 64.6 °F 90% 29.93 in 5.0 mi WNW 2.3 mph - 0.00 in   Clear
7:58 AM 72.3 °F - 63.1 °F 73% 29.95 in 10.0 mi Calm Calm - N/A   Clear
8:58 AM 75.4 °F - 63.1 °F 66% 29.96 in 10.0 mi NNE 4.6 mph - N/A   Partly Cloudy
9:58 AM 77.0 °F - 63.7 °F 63% 29.96 in 10.0 mi North 4.6 mph - N/A   Scattered Clouds
10:58 AM 80.4 °F 82.1 °F 64.2 °F 58% 29.96 in 10.0 mi Variable 3.5 mph - N/A   Clear
11:15 AM 80.6 °F 81.8 °F 62.6 °F 54% 29.95 in 10.0 mi NNE 4.6 mph - N/A   Light Drizzle
11:25 AM 80.6 °F 81.8 °F 62.6 °F 54% 29.95 in 10.0 mi Variable 4.6 mph - N/A   Scattered Clouds
11:58 AM 81.9 °F 83.1 °F 63.0 °F 53% 29.96 in 10.0 mi NNW 3.5 mph - 0.00 in   Mostly Cloudy
12:18 PM 80.6 °F 81.5 °F 60.8 °F 51% 29.95 in 10.0 mi NNW 5.8 mph - N/A   Light Drizzle
12:25 PM 82.4 °F 83.4 °F 62.6 °F 51% 29.95 in 10.0 mi NNW 4.6 mph - N/A   Mostly Cloudy
12:27 PM 82.4 °F 82.9 °F 60.8 °F 48% 29.95 in 10.0 mi NNW 3.5 mph - N/A   Light Drizzle
12:38 PM 82.4 °F 82.9 °F 60.8 °F 48% 29.95 in 10.0 mi Variable 1.2 mph - N/A   Scattered Clouds
12:40 PM 82.4 °F 82.9 °F 60.8 °F 48% 29.95 in 10.0 mi Variable 3.5 mph - N/A   Light Drizzle
12:45 PM 82.4 °F 82.9 °F 60.8 °F 48% 29.95 in 10.0 mi Variable 2.3 mph - N/A   Scattered Clouds
12:58 PM 82.4 °F 82.9 °F 60.8 °F 48% 29.96 in 10.0 mi Variable 1.2 mph - 0.00 in   Scattered Clouds
1:02 PM 82.4 °F 82.9 °F 60.8 °F 48% 29.95 in 10.0 mi Variable 3.5 mph - N/A   Mostly Cloudy
1:58 PM 84.2 °F 84.2 °F 60.1 °F 44% 29.96 in 10.0 mi Variable 3.5 mph - N/A   Mostly Cloudy
2:58 PM 86.0 °F 85.4 °F 59.0 °F 40% 29.94 in 10.0 mi Calm Calm - N/A   Clear
3:50 PM 87.8 °F 87.6 °F 60.8 °F 40% 29.93 in 10.0 mi Variable 5.8 mph - N/A   Light Drizzle
3:53 PM 87.8 °F 87.6 °F 60.8 °F 40% 29.93 in 10.0 mi SSE 5.8 mph - N/A   Partly Cloudy
3:58 PM 87.8 °F 87.6 °F 61.0 °F 40% 29.95 in 10.0 mi SE 5.8 mph - 0.00 in   Partly Cloudy
4:08 PM 86.0 °F 86.1 °F 60.8 °F 43% 29.92 in 10.0 mi West 6.9 mph - N/A   Light Drizzle
4:11 PM 86.0 °F 85.4 °F 59.0 °F 40% 29.92 in 10.0 mi Variable 2.3 mph - N/A   Partly Cloudy
4:58 PM 84.2 °F 84.6 °F 61.3 °F 46% 29.95 in 10.0 mi ENE 3.5 mph - 0.00 in   Overcast
4:59 PM 84.2 °F 84.4 °F 60.8 °F 45% 29.92 in 10.0 mi NE 3.5 mph - N/A   Light Drizzle
5:00 PM 84.2 °F 84.4 °F 60.8 °F 45% 29.92 in 10.0 mi NE 4.6 mph - N/A   Overcast
5:06 PM 84.2 °F 85.0 °F 62.6 °F 48% 29.92 in 10.0 mi NE 4.6 mph - N/A   Light Drizzle
5:09 PM 84.2 °F 85.6 °F 64.4 °F 51% 29.92 in 10.0 mi ENE 4.6 mph - N/A   Overcast
5:58 PM 82.6 °F 83.9 °F 64.0 °F 53% 29.94 in 10.0 mi East 3.5 mph - 0.00 in   Mostly Cloudy
6:58 PM 81.9 °F 83.1 °F 63.1 °F 53% 29.94 in 10.0 mi East 3.5 mph - N/A   Mostly Cloudy
7:58 PM 79.0 °F - 67.6 °F 68% 29.95 in 10.0 mi ENE 3.5 mph - N/A   Mostly Cloudy
8:58 PM 73.6 °F - 69.1 °F 86% 29.96 in 10.0 mi NE 4.6 mph - N/A   Scattered Clouds
9:52 PM 75.2 °F - 68.0 °F 78% 29.97 in 10.0 mi SE 2.3 mph - N/A   Light Drizzle
9:58 PM 74.1 °F - 68.2 °F 82% 29.99 in 10.0 mi ESE 2.3 mph - 0.00 in   Light Drizzle
10:09 PM 73.4 °F - 68.0 °F 83% 29.97 in 10.0 mi East 1.2 mph - N/A   Mostly Cloudy
10:10 PM 73.4 °F - 68.0 °F 83% 29.97 in 10.0 mi ENE 1.2 mph - N/A   Light Drizzle
10:15 PM 71.6 °F - 69.8 °F 94% 29.97 in 10.0 mi Calm Calm - N/A   Mostly Cloudy
10:44 PM 71.6 °F - 69.8 °F 94% 29.97 in 10.0 mi ESE 2.3 mph - N/A   Light Drizzle
10:45 PM 71.6 °F - 68.0 °F 88% 29.97 in 10.0 mi Variable 2.3 mph - N/A   Clear
10:58 PM 73.4 °F - 68.4 °F 84% 29.99 in 10.0 mi SSE 3.5 mph - 0.00 in   Clear
11:58 PM 72.7 °F - 68.5 °F 87% 30.00 in 10.0 mi SE 2.3 mph - N/A   Clear